Time,TemperatureF,DewpointF,PressureIn,WindDirection,WindDirectionDegrees,WindSpeedMPH,WindSpeedGustMPH,Humidity,HourlyPrecipIn,Conditions,Clouds,dailyrainin,SolarRadiationWatts/m^2,SoftwareType,DateUTC
2013-08-18 00:05:00,69.8,69.0,30.15,NE,51,0.0,2.0,97,0.01,,,0.18,0,weatherlink.com 1.10,2013-08-18 04:05:00,
2013-08-18 00:20:00,69.7,69.0,30.15,SE,126,0.0,0.0,97,0.01,,,0.18,0,weatherlink.com 1.10,2013-08-18 04:20:00,
2013-08-18 00:35:00,69.8,69.0,30.14,NNE,24,0.0,2.0,97,0.01,,,0.18,0,weatherlink.com 1.10,2013-08-18 04:35:00,
2013-08-18 00:50:00,69.8,69.0,30.14,ENE,65,0.0,4.0,97,0.01,,,0.18,0,weatherlink.com 1.10,2013-08-18 04:50:00,
2013-08-18 01:05:00,69.8,69.0,30.13,NNE,25,1.0,5.0,97,0.00,,,0.00,0,weatherlink.com 1.10,2013-08-18 05:05:00,
2013-08-18 01:20:00,69.7,69.0,30.13,NNE,23,0.0,5.0,97,0.00,,,0.00,0,weatherlink.com 1.10,2013-08-18 05:20:00,
2013-08-18 01:35:00,69.7,69.0,30.13,NE,42,1.0,3.0,97,0.00,,,0.00,0,weatherlink.com 1.10,2013-08-18 05:35:00,
2013-08-18 01:50:00,69.7,69.0,30.14,East,83,0.0,3.0,97,0.00,,,0.00,0,weatherlink.com 1.10,2013-08-18 05:50:00,
2013-08-18 02:05:00,69.7,69.0,30.14,ESE,117,0.0,3.0,97,0.00,,,0.00,0,weatherlink.com 1.10,2013-08-18 06:05:00,
2013-08-18 02:20:00,69.7,69.0,30.13,East,86,2.0,2.0,97,0.00,,,0.00,0,weatherlink.com 1.10,2013-08-18 06:20:00,
2013-08-18 02:35:00,69.7,69.0,30.13,SW,232,0.0,3.0,97,0.00,,,0.00,0,weatherlink.com 1.10,2013-08-18 06:35:00,
2013-08-18 02:50:00,69.8,69.0,30.12,ENE,69,1.0,1.0,97,0.00,,,0.00,0,weatherlink.com 1.10,2013-08-18 06:50:00,
2013-08-18 03:05:00,69.8,69.0,30.12,ESE,104,0.0,1.0,97,0.00,,,0.00,0,weatherlink.com 1.10,2013-08-18 07:05:00,
2013-08-18 03:20:00,69.8,69.0,30.13,East,97,0.0,2.0,97,0.00,,,0.00,0,weatherlink.com 1.10,2013-08-18 07:20:00,
2013-08-18 03:35:00,69.8,69.0,30.13,ENE,67,0.0,3.0,97,0.00,,,0.00,0,weatherlink.com 1.10,2013-08-18 07:35:00,
2013-08-18 03:50:00,69.9,69.0,30.13,SE,135,0.0,1.0,97,0.00,,,0.00,0,weatherlink.com 1.10,2013-08-18 07:50:00,
2013-08-18 04:05:00,69.9,69.0,30.13,SSW,198,0.0,2.0,97,0.00,,,0.00,0,weatherlink.com 1.10,2013-08-18 08:05:00,
2013-08-18 04:20:00,70.0,69.0,30.13,South,174,0.0,2.0,97,0.00,,,0.00,0,weatherlink.com 1.10,2013-08-18 08:20:00,
2013-08-18 04:35:00,70.1,69.0,30.13,South,174,0.0,0.0,97,0.00,,,0.00,0,weatherlink.com 1.10,2013-08-18 08:35:00,
2013-08-18 04:50:00,70.2,69.0,30.13,SSE,166,0.0,5.0,97,0.00,,,0.00,0,weatherlink.com 1.10,2013-08-18 08:50:00,
2013-08-18 05:05:00,70.4,70.0,30.13,South,171,0.0,3.0,98,0.00,,,0.00,0,weatherlink.com 1.10,2013-08-18 09:05:00,
2013-08-18 05:20:00,70.4,70.0,30.13,SSW,211,0.0,3.0,97,0.00,,,0.00,0,weatherlink.com 1.10,2013-08-18 09:20:00,
2013-08-18 05:35:00,70.2,69.0,30.14,SSW,211,0.0,0.0,97,0.00,,,0.00,0,weatherlink.com 1.10,2013-08-18 09:35:00,
2013-08-18 05:50:00,70.1,69.0,30.14,WSW,239,0.0,0.0,97,0.00,,,0.00,0,weatherlink.com 1.10,2013-08-18 09:50:00,
2013-08-18 06:05:00,69.9,69.0,30.14,WSW,257,0.0,4.0,97,0.00,,,0.00,0,weatherlink.com 1.10,2013-08-18 10:05:00,
2013-08-18 06:20:00,69.4,68.0,30.14,SW,227,2.0,6.0,96,0.00,,,0.00,0,weatherlink.com 1.10,2013-08-18 10:20:00,
2013-08-18 06:35:00,69.0,68.0,30.15,SW,232,0.0,7.0,96,0.00,,,0.00,5,weatherlink.com 1.10,2013-08-18 10:35:00,
2013-08-18 06:50:00,68.8,68.0,30.16,WNW,284,0.0,3.0,96,0.00,,,0.00,14,weatherlink.com 1.10,2013-08-18 10:50:00,
2013-08-18 07:05:00,68.6,68.0,30.16,WSW,250,0.0,6.0,96,0.00,,,0.00,46,weatherlink.com 1.10,2013-08-18 11:05:00,
2013-08-18 07:21:00,68.7,68.0,30.17,SW,230,1.0,2.0,96,0.00,,,0.00,62,weatherlink.com 1.10,2013-08-18 11:21:00,
2013-08-18 07:36:00,69.0,68.0,30.18,West,259,1.0,6.0,96,0.00,,,0.00,83,weatherlink.com 1.10,2013-08-18 11:36:00,
2013-08-18 07:51:00,68.8,67.0,30.17,WSW,250,2.0,10.0,95,0.00,,,0.00,83,weatherlink.com 1.10,2013-08-18 11:51:00,
2013-08-18 08:06:00,68.9,68.0,30.17,SW,222,1.0,9.0,95,0.00,,,0.00,88,weatherlink.com 1.10,2013-08-18 12:06:00,
2013-08-18 08:21:00,68.9,68.0,30.18,WSW,246,2.0,7.0,95,0.00,,,0.00,72,weatherlink.com 1.10,2013-08-18 12:21:00,
2013-08-18 08:36:00,69.0,68.0,30.18,WSW,256,0.0,5.0,95,0.00,,,0.00,76,weatherlink.com 1.10,2013-08-18 12:36:00,
2013-08-18 08:51:00,69.2,68.0,30.18,WSW,250,2.0,2.0,95,0.00,,,0.00,72,weatherlink.com 1.10,2013-08-18 12:51:00,
2013-08-18 09:07:00,69.2,68.0,30.18,West,265,0.0,3.0,95,0.00,,,0.00,93,weatherlink.com 1.10,2013-08-18 13:07:00,
2013-08-18 09:21:00,69.4,68.0,30.19,West,265,2.0,7.0,94,0.00,,,0.00,134,weatherlink.com 1.10,2013-08-18 13:21:00,
2013-08-18 09:36:00,69.7,68.0,30.19,WSW,251,1.0,3.0,94,0.00,,,0.00,113,weatherlink.com 1.10,2013-08-18 13:36:00,
2013-08-18 09:51:00,69.8,68.0,30.19,WSW,243,2.0,5.0,94,0.00,,,0.00,135,weatherlink.com 1.10,2013-08-18 13:51:00,
2013-08-18 10:06:00,70.8,68.0,30.20,SW,219,5.0,8.0,91,0.00,,,0.00,251,weatherlink.com 1.10,2013-08-18 14:06:00,
2013-08-18 10:21:00,71.5,69.0,30.20,SSW,193,3.0,8.0,90,0.00,,,0.00,499,weatherlink.com 1.10,2013-08-18 14:21:00,
2013-08-18 10:36:00,72.3,70.0,30.20,SSW,201,6.0,7.0,91,0.00,,,0.00,278,weatherlink.com 1.10,2013-08-18 14:36:00,
2013-08-18 10:51:00,72.9,70.0,30.20,SW,234,11.0,11.0,89,0.00,,,0.00,870,weatherlink.com 1.10,2013-08-18 14:51:00,
2013-08-18 11:06:00,73.4,69.0,30.21,WSW,240,11.0,12.0,86,0.00,,,0.00,425,weatherlink.com 1.10,2013-08-18 15:06:00,
2013-08-18 11:21:00,74.1,69.0,30.21,WSW,244,3.0,6.0,84,0.00,,,0.00,357,weatherlink.com 1.10,2013-08-18 15:21:00,
2013-08-18 11:36:00,73.8,69.0,30.21,SSW,212,1.0,7.0,85,0.00,,,0.00,295,weatherlink.com 1.10,2013-08-18 15:36:00,
2013-08-18 11:51:00,74.4,69.0,30.21,SW,228,3.0,7.0,84,0.00,,,0.00,895,weatherlink.com 1.10,2013-08-18 15:51:00,
2013-08-18 12:06:00,75.5,70.0,30.20,SW,227,0.0,13.0,82,0.00,,,0.00,1037,weatherlink.com 1.10,2013-08-18 16:06:00,
2013-08-18 12:21:00,76.9,71.0,30.20,WNW,284,2.0,5.0,81,0.00,,,0.00,306,weatherlink.com 1.10,2013-08-18 16:21:00,
2013-08-18 12:37:00,76.7,71.0,30.19,SSW,193,5.0,6.0,81,0.00,,,0.00,1143,weatherlink.com 1.10,2013-08-18 16:37:00,
2013-08-18 12:52:00,77.0,71.0,30.19,WSW,241,2.0,4.0,82,0.00,,,0.00,566,weatherlink.com 1.10,2013-08-18 16:52:00,
2013-08-18 13:07:00,77.3,70.0,30.18,WSW,243,2.0,11.0,78,0.00,,,0.00,364,weatherlink.com 1.10,2013-08-18 17:07:00,
2013-08-18 13:22:00,77.4,72.0,30.18,West,270,0.0,9.0,84,0.00,,,0.00,299,weatherlink.com 1.10,2013-08-18 17:22:00,
2013-08-18 13:37:00,78.8,71.0,30.18,WSW,258,0.0,5.0,78,0.00,,,0.00,371,weatherlink.com 1.10,2013-08-18 17:37:00,
2013-08-18 13:52:00,78.6,71.0,30.18,SW,229,0.0,4.0,78,0.00,,,0.00,290,weatherlink.com 1.10,2013-08-18 17:52:00,
2013-08-18 14:07:00,78.5,70.0,30.18,SW,217,0.0,9.0,76,0.00,,,0.00,394,weatherlink.com 1.10,2013-08-18 18:07:00,
2013-08-18 14:22:00,79.7,71.0,30.18,WNW,284,0.0,6.0,75,0.00,,,0.00,350,weatherlink.com 1.10,2013-08-18 18:22:00,
2013-08-18 14:37:00,79.3,71.0,30.17,WSW,251,0.0,6.0,76,0.00,,,0.00,294,weatherlink.com 1.10,2013-08-18 18:37:00,
2013-08-18 14:52:00,80.2,71.0,30.17,SW,215,5.0,7.0,74,0.00,,,0.00,958,weatherlink.com 1.10,2013-08-18 18:52:00,
2013-08-18 15:07:00,80.5,72.0,30.17,WSW,257,0.0,8.0,74,0.00,,,0.00,953,weatherlink.com 1.10,2013-08-18 19:07:00,
2013-08-18 15:22:00,81.0,71.0,30.16,SW,236,2.0,7.0,72,0.00,,,0.00,854,weatherlink.com 1.10,2013-08-18 19:22:00,
2013-08-18 15:37:00,81.5,71.0,30.16,SSW,202,3.0,7.0,70,0.00,,,0.00,773,weatherlink.com 1.10,2013-08-18 19:37:00,
2013-08-18 15:52:00,81.4,72.0,30.15,SW,225,1.0,8.0,72,0.00,,,0.00,761,weatherlink.com 1.10,2013-08-18 19:52:00,
2013-08-18 16:07:00,81.7,73.0,30.15,WSW,238,3.0,7.0,74,0.00,,,0.00,772,weatherlink.com 1.10,2013-08-18 20:07:00,
2013-08-18 16:22:00,81.8,71.0,30.15,ENE,64,0.0,6.0,70,0.00,,,0.00,789,weatherlink.com 1.10,2013-08-18 20:22:00,
2013-08-18 16:37:00,81.8,72.0,30.15,NW,322,0.0,4.0,71,0.00,,,0.00,232,weatherlink.com 1.10,2013-08-18 20:37:00,
2013-08-18 16:52:00,81.7,72.0,30.15,South,190,0.0,4.0,72,0.00,,,0.00,652,weatherlink.com 1.10,2013-08-18 20:52:00,
2013-08-18 17:07:00,81.6,72.0,30.15,WSW,238,2.0,3.0,72,0.00,,,0.00,534,weatherlink.com 1.10,2013-08-18 21:07:00,
2013-08-18 17:22:00,81.4,72.0,30.15,SW,225,1.0,5.0,73,0.00,,,0.00,135,weatherlink.com 1.10,2013-08-18 21:22:00,
2013-08-18 17:37:00,80.9,71.0,30.15,SW,217,0.0,2.0,71,0.00,,,0.00,158,weatherlink.com 1.10,2013-08-18 21:37:00,
2013-08-18 17:52:00,79.9,71.0,30.14,SW,217,0.0,0.0,73,0.00,,,0.00,163,weatherlink.com 1.10,2013-08-18 21:52:00,
2013-08-18 18:07:00,79.6,70.0,30.15,SW,227,0.0,4.0,73,0.00,,,0.00,176,weatherlink.com 1.10,2013-08-18 22:07:00,
2013-08-18 18:22:00,79.6,71.0,30.15,West,262,0.0,0.0,76,0.00,,,0.00,142,weatherlink.com 1.10,2013-08-18 22:22:00,
2013-08-18 18:37:00,79.1,71.0,30.15,West,262,0.0,0.0,76,0.00,,,0.00,141,weatherlink.com 1.10,2013-08-18 22:37:00,
2013-08-18 18:52:00,78.7,71.0,30.15,ENE,64,0.0,2.0,76,0.00,,,0.00,40,weatherlink.com 1.10,2013-08-18 22:52:00,
2013-08-18 19:07:00,77.9,71.0,30.15,ENE,65,0.0,2.0,79,0.00,,,0.00,51,weatherlink.com 1.10,2013-08-18 23:07:00,
2013-08-18 19:22:00,76.9,70.0,30.15,North,355,0.0,2.0,80,0.00,,,0.00,12,weatherlink.com 1.10,2013-08-18 23:22:00,
2013-08-18 19:37:00,75.6,70.0,30.16,North,355,0.0,0.0,83,0.00,,,0.00,14,weatherlink.com 1.10,2013-08-18 23:37:00,
2013-08-18 19:52:00,74.8,70.0,30.16,North,355,0.0,0.0,84,0.00,,,0.00,5,weatherlink.com 1.10,2013-08-18 23:52:00,
2013-08-18 20:07:00,73.9,70.0,30.16,North,355,0.0,1.0,87,0.00,,,0.00,0,weatherlink.com 1.10,2013-08-19 00:07:00,
2013-08-18 20:22:00,73.1,69.0,30.17,North,355,0.0,0.0,88,0.00,,,0.00,0,weatherlink.com 1.10,2013-08-19 00:22:00,
2013-08-18 20:37:00,72.5,69.0,30.17,SSW,193,0.0,1.0,89,0.00,,,0.00,0,weatherlink.com 1.10,2013-08-19 00:37:00,
2013-08-18 20:52:00,72.1,69.0,30.18,WSW,257,0.0,1.0,89,0.00,,,0.00,0,weatherlink.com 1.10,2013-08-19 00:52:00,
2013-08-18 21:07:00,71.9,69.0,30.18,WSW,256,0.0,0.0,89,0.00,,,0.00,0,weatherlink.com 1.10,2013-08-19 01:07:00,
2013-08-18 21:22:00,71.7,69.0,30.18,South,188,0.0,0.0,90,0.00,,,0.00,0,weatherlink.com 1.10,2013-08-19 01:22:00,
2013-08-18 21:37:00,71.5,68.0,30.19,NE,44,1.0,6.0,89,0.00,,,0.00,0,weatherlink.com 1.10,2013-08-19 01:37:00,
2013-08-18 21:52:00,71.2,67.0,30.19,East,79,2.0,3.0,87,0.00,,,0.00,0,weatherlink.com 1.10,2013-08-19 01:52:00,
2013-08-18 22:07:00,70.9,67.0,30.20,East,101,6.0,6.0,88,0.00,,,0.00,0,weatherlink.com 1.10,2013-08-19 02:07:00,
2013-08-18 22:22:00,70.7,67.0,30.20,ENE,60,0.0,3.0,89,0.00,,,0.00,0,weatherlink.com 1.10,2013-08-19 02:22:00,
2013-08-18 22:37:00,70.4,67.0,30.20,East,94,0.0,3.0,89,0.00,,,0.00,0,weatherlink.com 1.10,2013-08-19 02:37:00,
2013-08-18 22:52:00,70.1,67.0,30.21,NE,54,0.0,2.0,89,0.00,,,0.00,0,weatherlink.com 1.10,2013-08-19 02:52:00,
2013-08-18 23:07:00,69.8,67.0,30.20,SSE,160,0.0,2.0,90,0.00,,,0.00,0,weatherlink.com 1.10,2013-08-19 03:07:00,
2013-08-18 23:22:00,69.5,67.0,30.20,SW,233,0.0,5.0,90,0.00,,,0.00,0,weatherlink.com 1.10,2013-08-19 03:22:00,
2013-08-18 23:37:00,69.4,66.0,30.20,East,83,2.0,6.0,90,0.00,,,0.00,0,weatherlink.com 1.10,2013-08-19 03:37:00,
2013-08-18 23:52:00,69.2,66.0,30.20,East,98,0.0,2.0,90,0.00,,,0.00,0,weatherlink.com 1.10,2013-08-19 03:52:00,